FW5274 Weather Reports


Display with metric or nautical units.
time (UTC)temp
F
wind
direction
speed
MPH
gust
MPH
rain 1hr
in
rain 24hr
in
rain mn
in
humidity
%
barometer
mb
20260905004536 64 20 4.0 9.0 0.00 0.02 0.02 53 1017.5
20260905001536 66 344 3.0 8.0 0.00 0.02 0.02 53 1017.2
20260905000036 65 17 3.0 7.0 0.00 0.02 0.02 56 1017.3
20260904234532 64 3 2.0 5.0 0.00 0.02 0.02 60 1017.3
20260904233034 62 354 3.0 7.0 0.00 0.02 0.02 68 1017.4
20260904231537 58 42 3.0 8.0 0.00 0.02 0.02 75 1017.6
20260904230030 56 52 3.0 7.0 0.00 0.02 0.02 76 1017.5
20260904224650 57 95 6.0 17.0 0.02 0.02 0.02 72 1017.3
20260904223031 58 224 3.0 6.0 0.02 0.02 0.02 72 1017.2
20260904220106 60 315 1.0 9.0 0.02 0.02 0.00 65 1017.2
20260904214529 59 4 0.0 4.0 0.00 0.00 0.00 66 1017.2
20260904213031 60 59 1.0 6.0 0.00 0.00 0.00 64 1017.1
20260904211533 63 66 4.0 9.0 0.00 0.00 0.00 57 1016.9
20260904204609 62 62 3.0 7.0 0.00 0.00 0.00 59 1017.0
20260904201534 62 49 4.0 8.0 0.00 0.00 0.00 60 1017.0
20260904200034 62 53 4.0 10.0 0.00 0.00 0.00 61 1017.1
20260904194531 62 37 3.0 8.0 0.00 0.00 0.00 63 1017.2
20260904193034 60 39 4.0 11.0 0.00 0.00 0.00 64 1017.3
20260904191536 61 37 5.0 11.0 0.00 0.00 0.00 61 1017.4
20260904190030 61 37 3.0 7.0 0.00 0.00 0.00 61 1017.4
20260904184603 62 82 3.0 8.0 0.00 0.00 0.00 59 1017.4
20260904183032 62 88 4.0 9.0 0.00 0.00 0.00 59 1017.3
20260904181537 64 42 3.0 9.0 0.00 0.00 0.00 60 1017.2
20260904180030 64 51 4.0 11.0 0.00 0.00 0.00 59 1017.2
20260904174534 65 48 2.0 6.0 0.00 0.00 0.00 59 1017.2
20260904173031 65 48 3.0 7.0 0.00 0.00 0.00 61 1017.1
20260904171531 64 56 3.0 7.0 0.00 0.00 0.00 67 1017.2
20260904170034 59 57 2.0 5.0 0.00 0.00 0.00 73 1017.2
20260904164532 58 34 1.0 5.0 0.00 0.00 0.00 75 1017.1
20260904161607 58 48 0.0 4.0 0.00 0.00 0.00 79 1017.0
20260904154609 55 73 1.0 4.0 0.00 0.00 0.00 88 1016.9
20260904151533 51 263 0.0 2.0 0.00 0.00 0.00 91 1016.8
20260904144531 48 215 0.0 2.0 0.00 0.00 0.00 93 1016.5
20260904141535 47 157 0.0 2.0 0.00 0.00 0.00 92 1016.2
20260904140037 47 183 1.0 3.0 0.00 0.00 0.00 92 1016.0
20260904133107 47 217 2.0 3.0 0.00 0.00 0.00 92 1015.8
20260904131532 47 154 1.0 3.0 0.00 0.00 0.00 91 1015.5
20260904130030 47 135 0.0 1.0 0.00 0.00 0.00 91 1015.4
20260904124535 47 223 0.0 2.0 0.00 0.00 0.00 91 1015.5
20260904123032 47 245 1.0 2.0 0.00 0.00 0.00 90 1015.5
20260904121533 47 191 1.0 2.0 0.00 0.00 0.00 90 1015.4
20260904120034 47 194 1.0 2.0 0.00 0.00 0.00 91 1015.3
20260904114531 47 235 1.0 2.0 0.00 0.00 0.00 91 1015.2
20260904111530 47 225 0.0 2.0 0.00 0.00 0.00 91 1015.0
20260904110029 47 225 1.0 3.0 0.00 0.00 0.00 91 1014.9
20260904104536 47 219 1.0 3.0 0.00 0.00 0.00 91 1014.7
20260904100034 47 222 1.0 3.0 0.00 0.00 0.00 92 1014.6
20260904094536 47 110 0.0 2.0 0.00 0.00 0.00 92 1014.5
20260904093030 47 97 0.0 1.0 0.00 0.00 0.00 92 1014.4
20260904091609 47 157 0.0 2.0 0.00 0.00 0.00 91 1014.4
20260904090036 47 163 1.0 3.0 0.00 0.00 0.00 91 1014.4
20260904084536 47 163 2.0 3.0 0.00 0.00 0.00 91 1014.3
20260904083031 48 157 1.0 3.0 0.00 0.00 0.00 91 1014.2
20260904081535 47 161 2.0 4.0 0.00 0.01 0.00 91 1014.2
20260904080033 47 180 1.0 3.0 0.00 0.01 0.00 92 1014.3
20260904074606 47 171 2.0 4.0 0.00 0.01 0.00 92 1014.2
20260904073033 46 157 2.0 4.0 0.00 0.01 0.00 92 1014.1
20260904064529 45 164 2.0 4.0 0.00 0.01 0.01 92 1014.0
20260904063150 45 193 2.0 4.0 0.00 0.01 0.01 91 1014.0
20260904060031 46 159 2.0 4.0 0.00 0.01 0.01 90 1013.7
20260904054532 46 157 2.0 4.0 0.00 0.01 0.01 89 1013.9
20260904053142 47 191 2.0 3.0 0.00 0.01 0.01 89 1013.9
20260904051535 48 233 1.0 2.0 0.00 0.01 0.01 89 1014.1
20260904044530 48 6 0.0 3.0 0.00 0.01 0.01 89 1014.0
20260904043036 49 19 1.0 4.0 0.00 0.01 0.01 89 1014.0
20260904041536 49 337 1.0 5.0 0.00 0.01 0.01 88 1014.1
20260904040029 49 315 0.0 0.0 0.00 0.01 0.01 88 1014.2
20260904033032 50 319 2.0 6.0 0.00 0.01 0.01 88 1014.1
20260904031530 49 327 2.0 6.0 0.00 0.02 0.01 87 1013.9
20260904030033 50 337 1.0 5.0 0.00 0.02 0.01 86 1013.7
20260904024531 50 335 0.0 4.0 0.00 0.02 0.01 85 1013.6
20260904023035 50 315 0.0 2.0 0.00 0.02 0.01 84 1013.5
20260904021534 50 320 1.0 6.0 0.00 0.02 0.01 83 1013.3
20260904013032 52 319 3.0 9.0 0.00 0.02 0.01 76 1013.1
20260904011606 53 299 1.0 6.0 0.00 0.02 0.01 75 1013.1
20260904010105 54 320 2.0 6.0 0.00 0.02 0.01 72 1013.0